Погода Тегюльтя-Терде

Погода Тегюльтя-Терде : погода сейчас, прогноз погоды и архив. Всё, что Вы хотите узнать о погоде Тегюльтя-Терде!

Поиск расширенной информации на нашем сайте:

Другие новости

Новости СМИ2

Главная страница сайта

Новости сайта

03.07.2017

Напоминаем, что на нашем специализированном сайте Метеоцентр.Азия вы можете получить высокодетализированные автоматические прогнозы погоды по пунктам России, СНГ и мира в авиационном формате (включающие направление и скорость ветра, видимость, явления погоды, количество и форму облачности, нижнюю и верхнюю границу облачности).

Рекомендуем: предлагаются помещения сдам офис Бизнес центр Варшавка Sky у метро Чертановская

Погода Тегюльтя-Терде - сегодня

Время (UTC), дата Ветер
(°,м/с) 
Видим.   Явления Облачность Т
(°С)
Тd
(°С)
f(%) Тe
(°С)
Pmin
(гПа)
dP
(гПа)
Po
(мм)
O2
(г/м3)
Тmin Tmax R s Состояние
почвы
15 14.11.18 340 (С) 10 км  слаб. снег  10/0 средняя 
[As op]
-16.2 -18.1 85 -16  1028.3  -1.3  754  324           
18 14.11.18 320 (СЗ) 10 км  слаб. снег  10/0 средняя 
[As op]
-17 -18.9 85 -19  1027.1  -1.2  753  325           
03 15.11.18 270 (З) 20000 м  слаб. снег  10/0 средняя 
[Ac As]
-17.4 -20.8 75 -20  1027.2  0.3  753  326           
06 15.11.18 тихо ()   20000 м  {снег}  6/0 средняя 
[Ac trans]
-17.4 -20.8 75 -17  1027.2  753  326           
09 15.11.18 тихо ()   20000 м    ясно 
-26.2 -28.1 84 -26  1028.5  0.3  753  338           
12 15.11.18 тихо ()   20000 м    ясно 
-31.6 -33.9 80 -32  1029.4  0.5  754  345    -17.4  0.4     
15 15.11.18 тихо ()   20000 м    ясно 
-33.6 -35.9 80 -34  1028.7  -0.9  753  348           
18 15.11.18 тихо ()   10 км  слаб. снег  10/0 верхняя 
[Cs]
-30.7 -33 80 -31  1027.3  -1.2  752  343           
21 15.11.18 тихо ()   10 км  слаб. снег  10/0 верхняя 
[Cs]
-31.2 -33 84 -31  1026.8  -0.4  752  344           
03 16.11.18 тихо ()   20000 м    10/0 верхняя 
[Cs]
-29.6 -32 80 -30  1023.9  -1.7  750  341           
06 16.11.18 тихо ()   20000 м    10/0 верхняя 
[Cs]
-25.9 -28.4 79 -26  1022.4  -1.2  749  335           
09 16.11.18 тихо ()   20000 м    10/0 верхняя 
[Cs]
-27.1 -29.5 80 -27  1022.5  749  337           
12 16.11.18 тихо ()   20000 м    10/0 верхняя 
[Cs]
-26.8 -28.7 84 -27  1022.5  749  336    -25.9       
15 16.11.18 тихо ()   20000 м  слаб. снег  10/0 верхняя 
[Cs]
-29.4 -31.1 85 -29  1022.4  -0.3  749  340           
18 16.11.18 тихо ()   10 км  слаб. снег  10/0 верхняя 
[Cs]
-26.4 -28.2 85 -26  1022.2  749  336           
21 16.11.18 тихо ()   10 км  слаб. снег  10/0 верхняя 
[Cs]
-26.8 -28.7 84 -27  1022.2  749  336           
03 17.11.18 250 (З) 20000 м  слаб. снег  10/0 верхняя 
[Cs]
-23.1 -25.7 79 -26  1023.1  750  332           
06 17.11.18 210 (ЮЗ) 20000 м  слаб. снег  10/0 верхняя 
[Cs]
-20.6 -23.1 80 -21  1023.2  0.3  750  328           
09 17.11.18 тихо ()   20000 м  {снег}  10/0 верхняя 
[Cs]
-25.2 -27.1 84 -25  1024.4  0.8  750  335           
15 17.11.18 тихо ()   10 км  слаб. снег  10/0 верхняя 
[Cs]
-23.8 -25.6 85 -24  1024.3  -1.8  750  333           
18 17.11.18 230 (ЮЗ) 10 км  слаб. снег  10/0 верхняя 
[Cs]
-20.8 -22.7 85 -24  1024.2  0.1  751  329           
21 17.11.18 тихо ()   10 км  слаб. снег  10/0 верхняя 
[Cs]
-20 -21.9 85 -20  1023.1  -0.9  750  328           
03 18.11.18 210 (ЮЗ) 20000 м  слаб. снег  10/0 верхняя 
[Cs]
-17.8 -19.7 85 -18  1022.2  -0.4  749  325           
06 18.11.18 220 (ЮЗ) 20000 м  слаб. снег  10/0 средняя 
[As op]
-16.8 -19.4 80 -19  1021.2  -1  749  323           
09 18.11.18 250 (З) 10 км  слаб. снег  10/0 средняя 
[As op]
-18.2 -20.8 80 -22  1021.9  0.5  749  325           
Время (UTC), дата Ветер
(°,м/с) 
Видим.   Явления Облачность Т
(°С)
Тd
(°С)
f(%) Тe
(°С)
Pmin
(гПа)
dP
(гПа)
Po
(мм)
O2
(г/м3)
Тmin Tmax R s Состояние
почвы

Для получения пояснительной информации подведите курсор к названию столбца.

ПОГОДА Тегюльтя-Терде - архив

Всё, что Вы хотите узнать о погоде Тегюльтя-Терде - удобно и подробно!

Выберите нужную дату (начиная с 1 января 2015* года) и нажмите кнопку "Найти".
Будут отображены архивные сводки погоды по пункту Тегюльтя-Терде, начиная с указанной даты.


Отображать данные в формате CSV (для использования в таблицах Excel)


Внимание! Наш архив погоды предназначен исключительно для личного некоммерческого использования в познавательных целях. Если Вам необходимы официальные справки о состоянии погоды (для производственных, юридических, коммерческих и т.п. целей), обращайтесь в органы Росгидромета.

*Примечание: данная дата относится к архиву по метеостанциям СССР (Россия, СНГ, Балтия).
Архив по метеостанциям Зарубежной Европы и Азии (кроме Китая) хранится 10 дней, по другим регионам земного шара (Китай, Африка, Америка, Австралия, Океания) - 1 день.

Тегюльтя-Терде - район местоположения метеостанции


Название, широта, долгота, высота метеостанции:
Тегюльтя-Терде 60.2°ш. 130.2°д. 171 м над ур. моря [Российская Федерация]

Дополнительная информация

В oтличие oт бoльшинства пoгoдных сайтoв мы публикуем пoдрoбную метеoинфoрмацию в детальнoм прoфессиoнальнoм фoрмате.

Характеристики температуры и влажнoсти вoздуха измеряются на высoте 2 м в тени вдали oт зданий и деревьев.
Скoрoсть ветра измеряется на высoте 10 м (на урoвне рoста челoвека скoрoсть ветра ниже в 1.5-2 раза). Если метеoстанция нахoдится в гoрoде или в лесу, тo скoрoсть ветра занижена на 2-4 м/с пo сравнению с oткрытым местoм. Скoрoсть ветра над акватoриями крупных рек и oзёр, а также на вершинах хoлмoв на 2-5 м/с выше, чем в oбычных услoвиях.
Атмoсфернoе давление в разных тoчках местнoсти мoжет значительнo oтличаться oт давления на метеoстанции, в зависимoсти oт услoвий рельефа (при пoдъёме на 10 м давление пoнижается примернo на 1 мм рт.ст.).